{"data":{"norad_id":59285,"intl_designator":"2024-052F","name":"YUNHAI-2 02F","alt_names":[],"object_type":"PAYLOAD","status":"ACTIVE","operator":null,"country":"PRC","launch_date":"2024-03-21","launch_site_code":"JSC","launch_vehicle":null,"mission":null,"orbit_class":"UNKNOWN","rcs_meters":null,"size_class":null,"mass_kg":null,"dimensions":null,"purposes":[],"wikipedia_slug":null,"has_3d_model":false,"image_url":null,"decayed_at":null,"tle_current":{"epoch":"2026-05-25T04:45:21.773952Z","epoch_age_seconds":53933,"freshness":"FRESH","line1":"1 59285U 24052F   26145.19816868  .00000006  00000+0  66838-4 0  9997","line2":"2 59285  50.0115 300.3709 0005340 100.7480 259.4036 14.27980642115871","mean_motion":14.27980642,"eccentricity":0.000534,"inclination_deg":50.0115,"raan_deg":300.3709,"arg_perigee_deg":100.748,"mean_anomaly_deg":259.4036,"bstar":6.6838e-5,"rev_number":11587,"period_min":100.84170314684,"perigee_km":794.65635851866,"apogee_km":802.3209947413,"semimajor_km":7176.62567663,"source":"CELESTRAK","updated_at":"2026-05-25T13:38:01.313747Z"}}}